This is the latest recevied weather packets stored in our database for station/object JA3QOS-13. If no packets are shown the sender has not sent any weather packets the latest 10 day(s).
| Time | Temp. | Humidity | Pressure | Rain* | Wind** | Luminosity | Snow |
|---|---|---|---|---|---|---|---|
| 1777581004 | 12.78° C | 99% | 1004.1 hPa | 5.33 mm | - | - | - |
| 1777579204 | 12.22° C | 99% | 1004.9 hPa | 3.3 mm | - | - | - |
| 1777577404 | 12.22° C | 99% | 1005 hPa | 0 mm | - | - | - |
| 1777575604 | 12.22° C | 99% | 1006 hPa | 0.25 mm | - | - | - |
| 1777573804 | 12.22° C | 99% | 1006.3 hPa | 0.25 mm | - | - | - |
| 1777572003 | 12.22° C | 99% | 1007.2 hPa | 0 mm | - | - | - |
| 1777570203 | 11.67° C | 99% | 1007.4 hPa | 0 mm | - | - | - |
| 1777568404 | 11.67° C | 99% | 1007.9 hPa | 0 mm | - | - | - |
| 1777566604 | 11.67° C | 99% | 1008.3 hPa | 0.25 mm | - | - | - |
| 1777564804 | 11.67° C | 99% | 1008.8 hPa | 0.51 mm | - | - | - |
| 1777563003 | 11.67° C | 99% | 1009.5 hPa | 2.03 mm | - | - | - |
| 1777561204 | 11.67° C | 99% | 1010.3 hPa | 6.35 mm | - | - | - |
| 1777559404 | 11.67° C | 99% | 1011.3 hPa | 8.38 mm | - | - | - |
| 1777557604 | 11.67° C | 99% | 1012.3 hPa | 3.81 mm | - | - | - |
| 1777555803 | 11.67° C | 99% | 1012.2 hPa | 0.25 mm | - | - | - |
| 1777554004 | 11.67° C | 99% | 1011.8 hPa | 0 mm | - | - | - |
| 1777552204 | 11.67° C | 99% | 1012.6 hPa | 0 mm | - | - | - |
| 1777550404 | 11.11° C | 99% | 1013 hPa | 0 mm | - | - | - |
| 1777548604 | 11.11° C | 99% | 1013.3 hPa | 0 mm | - | - | - |
| 1777546804 | 11.11° C | 99% | 1013.7 hPa | 0 mm | - | - | - |
| 1777545004 | 11.11° C | 99% | 1013.6 hPa | 0 mm | - | - | - |
| 1777543204 | 11.11° C | 99% | 1014.1 hPa | 0 mm | - | - | - |
| 1777541404 | 11.11° C | 99% | 1014.1 hPa | 0 mm | - | - | - |
| 1777539604 | 11.11° C | 99% | 1014.3 hPa | 0.25 mm | - | - | - |
| 1777537804 | 11.11° C | 99% | 1014.8 hPa | 0.25 mm | - | - | - |
* Rain latest hour (hover to see other rain measurements)
** Current wind speed in m/s (hover to see current wind gust speed)